Weather History for KDAW - March, 2013

Change the Weather History Date:

Friday, March 22, 2013

  Actual Average (KSFM) Record (KSFM)
Temperature  
Mean Temperature 30 °F -  
Max Temperature 39 °F 41 °F 84 °F (2012)
Min Temperature 24 °F 23 °F 12 °F (2002)
Degree Days  
Heating Degree Days 34    
Moisture  
Dew Point 16 °F    
Average Humidity 55    
Maximum Humidity 78    
Minimum Humidity 32    
Precipitation  
Precipitation 0.00 in - - ()
Sea Level Pressure  
Sea Level Pressure 29.63 in    
Wind  
Wind Speed 6 mph (WNW)    
Max Wind Speed 17 mph    
Max Gust Speed 22 mph    
Visibility 10 miles    
Events      
Averages and records for this station are not official NWS values.
T = Trace of Precipitation, MM = Missing Value Source: NWS Daily Summary

Daily Weather History Graph

Daily Weather History Graph

Search for Another Location

Airport or City:

Trip Planner

Search our weather history database for the weather conditions in past years. The results will help you decide how hot, cold, wet, or windy it might be!

Date:

Astronomy

Mar. 22, 2013 Rise Set
Actual Time 6:42 AM EDT 6:58 PM EDT
Civil Twilight 6:14 AM EDT 7:27 PM EDT
Nautical Twilight 5:41 AM EDT 8:00 PM EDT
Astronomical Twilight 5:06 AM EDT 8:35 PM EDT
Moon 2:16 PM EDT (3/22) 3:48 AM EDT (3/22)
Length of Visible Light 13h 12m
Length of Day
12h 15m
Waxing Gibbous, 77% of the Moon is Illuminated
Mar 22
Waxing Gibbous
Mar 27
Full
Apr 3
Last Quarter
Apr 10
New
Apr 18
First Quarter

Hourly Weather History & Observations

Time (EDT) Temp. Windchill Dew Point Humidity Pressure Visibility Wind Dir Wind Speed Gust Speed Precip Events Conditions
12:51 AM 28.9 °F - 23.0 °F 78% 29.59 in 10.0 mi Calm Calm - N/A   Overcast
1:51 AM 24.1 °F 15.2 °F 18.0 °F 77% 29.59 in 10.0 mi NW 8.1 mph - N/A   Clear
2:51 AM 25.0 °F 17.1 °F 16.0 °F 69% 29.59 in 10.0 mi NW 6.9 mph - N/A   Overcast
3:51 AM 26.1 °F 18.4 °F 15.1 °F 63% 29.59 in 10.0 mi NW 6.9 mph - N/A   Overcast
4:51 AM 27.0 °F 19.5 °F 15.1 °F 61% 29.59 in 10.0 mi NW 6.9 mph - N/A   Overcast
5:51 AM 27.0 °F 18.7 °F 14.0 °F 58% 29.60 in 10.0 mi NW 8.1 mph - N/A   Overcast
6:51 AM 28.0 °F 18.1 °F 12.9 °F 53% 29.61 in 10.0 mi NW 11.5 mph - N/A   Overcast
7:51 AM 28.0 °F 22.8 °F 14.0 °F 56% 29.64 in 10.0 mi NW 4.6 mph - N/A   Overcast
8:51 AM 28.9 °F 25.2 °F 14.0 °F 54% 29.64 in 10.0 mi NW 3.5 mph - N/A   Overcast
10:51 AM 36.0 °F - 14.0 °F 41% 29.64 in 10.0 mi Calm Calm - N/A   Mostly Cloudy
11:51 AM 35.1 °F 31.0 °F 12.9 °F 40% 29.62 in 10.0 mi NW 4.6 mph - N/A   Mostly Cloudy
12:51 PM 37.9 °F 33.5 °F 10.0 °F 32% 29.62 in 10.0 mi WSW 5.8 mph - N/A   Overcast
1:51 PM 37.9 °F 32.7 °F 12.9 °F 36% 29.61 in 10.0 mi Variable 6.9 mph - N/A   Mostly Cloudy
2:51 PM 37.9 °F 32.1 °F 12.9 °F 36% 29.60 in 10.0 mi WNW 8.1 mph - N/A   Overcast
3:51 PM 36.0 °F 26.0 °F 14.0 °F 41% 29.60 in 10.0 mi NW 17.3 mph 21.9 mph N/A   Overcast
5:51 PM 37.0 °F 31.0 °F 14.0 °F 39% 29.62 in 10.0 mi West 8.1 mph - N/A   Scattered Clouds
6:51 PM 35.1 °F 28.6 °F 15.1 °F 44% 29.64 in 10.0 mi WNW 8.1 mph - N/A   Scattered Clouds
7:51 PM 33.1 °F 26.9 °F 18.0 °F 54% 29.65 in 10.0 mi WNW 6.9 mph - N/A   Mostly Cloudy
8:51 PM 33.1 °F 24.9 °F 19.9 °F 59% 29.67 in 10.0 mi WNW 10.4 mph 20.7 mph N/A   Overcast
9:51 PM 32.0 °F 28.7 °F 21.0 °F 64% 29.68 in 10.0 mi Variable 3.5 mph - N/A   Mostly Cloudy
10:51 PM 30.9 °F 27.5 °F 21.0 °F 67% 29.67 in 10.0 mi Variable 3.5 mph - N/A   Overcast
11:34 PM 30.2 °F 20.8 °F 21.2 °F 69% 29.67 in 10.0 mi WNW 11.5 mph 18.4 mph N/A   Overcast
11:49 PM 30.2 °F 21.3 °F 21.2 °F 69% 29.66 in 10.0 mi WNW 10.4 mph - N/A   Overcast
11:51 PM 30.9 °F 22.8 °F 21.9 °F 69% 29.67 in 10.0 mi WNW 9.2 mph - N/A   Mostly Cloudy